STARLINK-34543, 64926

Orbit data source: Space-Track

STARLINK-34543, 64926 is a payload satellite owned by SpaceX/Seattle (US) in LEO that was launched on Sat, 26 Jul 2025 UTC via an FALCON 9 launch vehicle from the Air Force Eastern Test Range (AFETR). Payload-class satellites include a variety of spacecraft equipped with specific instruments for various scientific and technological missions. These include communications satellites like Starlink; space stations such as the ISS; scientific satellites like the Hubble; Earth observation satellites from companies like Planet Labs, Umbra, and HawkEye 360; GPS; miniature CubeSats for education and research; and military/defense satellites.

Loading next visibility...
Identifier
64926, 2025-157Y
Orbit
LEO
Country
Flag of USUS
Related business
Manufacturer
SpaceX/Seattle
Mission
Operational Commercial Communications
Bus & Motor
STARLINK V2MO, Unknown motor
Mass
575 kg wet, ~530 kg dry
Launch date (UTC)
2025-07-26 (4 months ago)
Launch vehicle
FALCON 9
Launch site
Air Force Eastern Test Range (AFETR)
Object type
Payload
Rocket body
Debris
Shape & HBR
Box + 2 Pan, 17.7 m
Radar Cross Section
36.964 m², Large (>1 m²)

Expand to show TLE details & history
Last TLE update: 16 hours ago

TLE from 16 hours ago
0 STARLINK-34543
1 64926U 25157Y   25340.51491993  .00073517  00000-0  18299-2 0  9996
2 64926  53.1579  62.3359 0001167 302.7198  57.3694 15.39624807 21756
Epoch: 2025-12-06T12:21Z
TLE epoch observation values (Epoch: 2025-12-06T12:21:29.081Z)
Latitude
-0.00006°
Longitude
161.42312°
Altitude
447.692 km
Speed
7.645 km/s
True Right ascension
04h 09m 20s
True Declination
0° 00' 00"
Sunlit
Object was in full shadow at epoch
Visualization orbit readout
Latitude
Unknown
Longitude
Unknown
Altitude
Unknown
Speed
Unknown
Apparent Right ascension
Unknown
Apparent Declination
Unknown
Sunlit
N/A
Visualization observer readout
Local Sidereal Time
02:30:13
Azimuth
Unknown
Elevation
Unknown
Doppler factor
Unknown
Orbital elements
Apogee altitude
448.272 km
Perigee altitude
446.679 km
Semi-major axis
6,825.613 km
Eccentricity
0.00012
Inclination
53.1579°
RAAN
62.3359°
Arg. of periapsis
302.7198°
True anomaly
57.38066°
Mean anomaly
57.3694°
Eccentric anomaly
57.37503°
Mean motion
3.84885 °/min
Orbital period
93.53 mins
BSTAR
0.0018299
Loading maneuver chart data...
Computing Atmospheric mass density...
Loading historical data...
Loading historical data...
Loading historical data...
Loading historical data...
Loading historical data...
Loading historical data...
Loading historical data...

Documentation

Showing up to 5 results
|